COSMOS 1275 DEB, 42226

Orbit data source: Space-Track

COSMOS 1275 DEB, 42226 is space debris in LEO originally from a launch on Thu, 04 Jun 1981 UTC launched from the Plesetsk Missile And Space Complex (PKMTR). Debris objects in space refer to the collection of defunct objects orbiting the Earth. Examples of debris include non-operational satellites, rocket bodies, and fragments generated from explosions, collisions, or faulty payload assembly.

Loading next visibility...
Identifier
42226, 1981-053US
Orbit
LEO
Last TLE update
1 week ago
Origin
Manufacturer
Unknown
Mission
Spacecraft
Bus & Motor
Unknown
Mass
Unknown
Launch date (UTC)
1981-06-04 (44 years ago)
Launch vehicle
Unknown
Launch site
Plesetsk Missile And Space Complex (PKMTR)
Object type
Payload
Rocket body
Debris
Shape & HBR
Unknown
Radar Cross Section
Small (<0.1 m²)

Expand to show TLE details & history

TLE from 1 week ago
0 COSMOS 1275 DEB
1 42226U 81053US  25183.47807247  .00000538  00000-0  58374-3 0  9997
2 42226  82.9528 100.9096 0112183  69.5029 291.8123 13.68462941579544
Epoch: 2025-07-02T11:28Z
TLE epoch observation values (Epoch: 2025-07-02T11:28:25.461Z)
Latitude
0.00006°
Longitude
8.04492°
Altitude
978.009 km
Speed
7.378 km/s
True Right ascension
06h 43m 38s
True Declination
0° 00' 00"
Sunlit
Object was in daylight at epoch
Visualization orbit readout
Latitude
-47.61442°
Longitude
-169.21864°
Altitude
1,106.225 km
Speed
7.257 km/s
Apparent Right ascension
13h 51m 33s
Apparent Declination
-82° 03' 56"
Sunlit
Object is in full shadow
Visualization observer readout
Local Sidereal Time
19:55:49
Azimuth
190.319° SSW
Elevation
-39.605°
Doppler factor
1
Orbital elements
Apogee altitude
1,085.047 km
Perigee altitude
919.456 km
Semi-major axis
7,380.388 km
Eccentricity
0.01122
Inclination
82.9528°
RAAN
100.9096°
Arg. of periapsis
69.5029°
True anomaly
Unknown
Mean anomaly
291.8123°
Eccentric anomaly
Unknown
Mean motion
3.42314 °/min
Orbital period
105.17 mins
BSTAR
0.00058374
Loading maneuver chart data...
Loading SW <> Apogee altitude chart data...
Loading historical data...
Loading historical data...
Loading historical data...
Loading historical data...
Loading historical data...
Loading historical data...
Loading historical data...

COSMOS 1275 DEB Visibility forecast

Observer location: undefined°, undefined°

Span
Click to sort rows by Start time (UTC) header in descending order
Start Az.
Max El. time (UTC)
Max El. Az.
Max El.
End time (UTC)
End Az.
8 mins2025-07-09 17:19:16.830Z129.738° SE2025-07-09 17:23:16.830Z83.317° E20.859°2025-07-09 17:27:16.830Z38.131° NE
10 mins2025-07-09 19:04:16.830Z212.907° SW2025-07-09 19:09:16.830Z296.371° NW35.698°2025-07-09 19:14:16.830Z354.573° N
8 mins2025-07-10 04:19:16.830Z32.929° NE2025-07-10 04:22:16.830Z66.741° ENE19.863°2025-07-10 04:27:16.830Z118.407° SE
11 mins2025-07-10 06:04:16.830Z341.033° N2025-07-10 06:09:16.830Z255.299° W40.103°2025-07-10 06:15:16.830Z190.854° SSW
|